www.pogodaiklimat.ru

Погода и климат >> Архив погоды >> Дания >> Омо


ПОГОДА в Омо

  • Прогноз погоды в Омо
  • Монитор погоды в Омо

АРХИВ ПОГОДЫ в Омо

Время (UTC), дата Ветер
(напр.,м/с)
 
Видим.   Явления Облачность Т
(С)
Тd
(С)
f
(%)
Тe
(С)
Тes
(С)
Комфортность P
(гПа)
Po
(гПа)
Тmin
(С)
Tmax
(С)
R
(мм)
R24
(мм)
S
(см)
22 13.06 В 4 н/о н/о +15.2 +13.7 91 +14 +14 1014.4 1014.1
23 13.06 ЮВ 6 н/о н/о +16.0 +14.2 89 +15 +15 1014.9 1014.5
00 14.06 ЮВ 6 н/о н/о +16.3 +15.1 93 +15 +15 1015.2 1014.9
01 14.06 Ю 3 н/о н/о +14.8 +13.5 92 +14 +14 1016.0 1015.7
02 14.06 ЮВ 4 н/о н/о +14.9 +13.8 93 +14 +14 1016.1 1015.7
03 14.06 ЮВ 3 н/о н/о +14.5 +13.4 93 +13 +13 1016.4 1016.1
04 14.06 ЮВ 4 н/о н/о +14.8 +13.7 93 +14 +14 1016.5 1016.2
05 14.06 ЮВ 3 н/о н/о +16.4 +14.4 88 +16 +16 1016.9 1016.5
06 14.06 ЮВ 4 н/о н/о +16.4 +14.3 87 +16 +16 1017.2 1016.8 +14.1 +17.4
07 14.06 Ю 4 н/о н/о +19.0 +15.7 81 +20 +20 1017.7 1017.4
08 14.06 Ю 3 н/о н/о +19.8 +16.0 79 +22 +22 комфорт 1018.3 1018.0
09 14.06 Ю 3 н/о н/о +20.2 +15.8 76 +23 +23 комфорт 1018.4 1018.1
10 14.06 ЮВ 2 н/о н/о +21.0 +15.6 71 +25 +25 комфорт 1018.4 1018.1
11 14.06 В 4 н/о н/о +21.5 +16.5 73 +25 +25 комфорт 1018.2 1017.9
12 14.06 ЮВ 6 н/о н/о +22.4 +15.2 64 +26 +26 жарко 1018.0 1017.7
13 14.06 В 5 н/о н/о +19.8 +16.1 79 +22 +22 комфорт 1017.7 1017.4
14 14.06 В 6 н/о н/о +20.0 +15.8 77 +22 +22 комфорт 1017.4 1017.0
15 14.06 В 7 н/о н/о +19.6 +16.0 80 +21 +21 комфорт 1017.1 1016.7
16 14.06 В 8 н/о н/о +19.4 +15.2 77 +20 +20 1016.9 1016.6
17 14.06 СВ 3 н/о н/о +19.0 +16.1 83 +21 +21 комфорт 1016.7 1016.4
18 14.06 СВ 2
{12}
н/о н/о +17.2 +15.8 91 +17 +17 1017.2 1016.9 +16.0 +22.7
19 14.06 СВ 5 н/о н/о +17.5 +15.9 90 +17 +17 1017.5 1017.2
20 14.06 СВ 6 н/о н/о +16.8 +14.8 88 +16 +16 1017.3 1016.9
21 14.06 СВ 5 н/о н/о +16.3 +14.4 89 +15 +15 1017.3 1017.0
22 14.06 В 8 н/о н/о +16.7 +14.3 86 +15 +15 1016.7 1016.4
23 14.06 В 8 н/о н/о +16.7 +14.3 86 +15 +15 1016.4 1016.0
00 15.06 В 8 н/о н/о +16.6 +14.0 85 +15 +15 1015.9 1015.6
01 15.06 В 7 н/о н/о +16.6 +13.7 83 +15 +15 1015.4 1015.0
02 15.06 В 6 н/о н/о +16.6 +13.9 84 +15 +15 1014.8 1014.4
03 15.06 В 6 н/о н/о +16.9 +14.5 86 +16 +16 1014.1 1013.7
04 15.06 В 6 н/о н/о +17.2 +14.9 86 +16 +16 1013.6 1013.3
05 15.06 В 7 н/о н/о +17.6 +15.3 86 +17 +17 1012.9 1012.6
06 15.06 В 7 н/о н/о +18.0 +15.5 85 +17 +17 1012.7 1012.4 +16.3 +18.1
07 15.06 В 7 н/о н/о +17.8 +15.9 89 +17 +17 1012.8 1012.4
08 15.06 В 7 н/о н/о +17.0 +15.8 93 +16 +16 1013.3 1013.0
09 15.06 В 6 н/о н/о +16.7 +15.8 94 +16 +16 1013.1 1012.8
10 15.06 В 8 н/о н/о +16.2 +15.5 96 +14 +14 1012.2 1011.8
11 15.06 В 13 н/о н/о +16.2 +15.1 93 +14 +14 1010.5 1010.2
12 15.06 В 10 н/о н/о +17.5 +13.2 76 +16 +16 1010.8 1010.5
13 15.06 В 10 н/о н/о +18.3 +13.2 72 +17 +17 1011.2 1010.8
14 15.06 В 11 н/о н/о +19.7 +13.1 66 +20 +20 1010.3 1010.0
15 15.06 В 12 н/о н/о +19.2 +12.5 65 +19 +19 1009.7 1009.4
16 15.06 СВ 6 н/о н/о +16.7 +12.9 78 +16 +16 1011.1 1010.8
17 15.06 В 3 н/о н/о +17.4 +13.4 77 +17 +17 1012.0 1011.7
18 15.06 ЮВ 3 н/о н/о +17.1 +14.1 83 +17 +17 1011.5 1011.2 +16.1 +19.9
19 15.06 ЮВ 4 н/о н/о +16.8 +14.9 89 +16 +16 1011.5 1011.2
20 15.06 штиль 0 н/о н/о +15.9 +14.7 93 +16 +16 1012.5 1012.2
21 15.06 ЮЗ 3 н/о н/о +15.5 +14.6 94 +15 +15 1012.8 1012.5
22 15.06 Ю 5 н/о н/о +15.4 +14.7 96 +14 +14 1013.2 1012.9
23 15.06 ЮЗ 8 н/о н/о +15.8 +15.2 96 +14 +14 1013.6 1013.3
00 16.06 З 8 н/о н/о +15.0 +14.2 95 +13 +13 1013.9 1013.5
01 16.06 З 9 н/о н/о +14.9 +13.8 93 +12 +12 1014.4 1014.1
02 16.06 З 10 н/о н/о +14.8 +13.0 89 +12 +12 1014.8 1014.5
03 16.06 З 10 н/о н/о +14.3 +12.4 88 +12 +12 1015.3 1015.0
04 16.06 З 9 н/о н/о +14.3 +12.4 88 +12 +12 1015.8 1015.5
05 16.06 З 8 н/о н/о +14.8 +12.2 84 +13 +13 1016.3 1016.0
06 16.06 З 7 н/о н/о +15.5 +12.6 83 +14 +14 1017.1 1016.8 +14.1 +17.4
07 16.06 З 5 н/о н/о +16.4 +12.3 77 +15 +15 1017.6 1017.3
08 16.06 ЮЗ 6 н/о н/о +17.1 +13.0 77 +16 +16 1017.8 1017.5
09 16.06 З 6 н/о н/о +17.8 +12.8 73 +17 +17 1018.3 1017.9
10 16.06 З 4 н/о н/о +18.8 +13.3 70 +20 +20 1018.9 1018.6
11 16.06 ЮЗ 5 н/о н/о +18.8 +14.2 75 +20 +20 1019.1 1018.8
12 16.06 З 2 н/о н/о +18.7 +14.6 77 +20 +20 1019.4 1019.1
13 16.06 З 5 н/о н/о +19.1 +14.3 74 +20 +20 1019.8 1019.4
14 16.06 З 1 н/о н/о +18.9 +14.5 76 +21 +21 комфорт 1020.1 1019.8
15 16.06 ЮЗ 4 н/о н/о +18.1 +14.7 81 +18 +18 1020.0 1019.7
16 16.06 ЮЗ 4 н/о н/о +19.3 +15.4 78 +21 +21 комфорт 1019.9 1019.6
17 16.06 Ю 3 н/о н/о +19.6 +15.6 78 +22 +22 комфорт 1020.0 1019.7
18 16.06 Ю 4 н/о н/о +18.7 +15.0 79 +19 +19 1020.0 1019.7 +15.4 +20.9
19 16.06 Ю 4 н/о н/о +17.3 +14.6 84 +17 +17 1020.0 1019.7
20 16.06 ЮЗ 5 н/о н/о +16.1 +14.1 88 +15 +15 1020.1 1019.8
21 16.06 ЮЗ 5 н/о н/о +15.4 +14.2 93 +14 +14 1020.6 1020.2
22 16.06 ЮЗ 3 н/о н/о +15.1 +14.3 95 +14 +14 1020.7 1020.4
23 16.06 ЮЗ 3 н/о н/о +15.2 +14.4 95 +15 +15 1020.7 1020.4
00 17.06 ЮЗ 3 н/о н/о +15.4 +14.7 96 +15 +15 1020.8 1020.5
01 17.06 ЮЗ 3 н/о н/о +15.3 +14.3 94 +15 +15 1020.9 1020.6
02 17.06 ЮЗ 4 н/о н/о +15.3 +14.3 94 +14 +14 1021.1 1020.8
03 17.06 З 3 н/о н/о +15.0 +13.3 90 +14 +14 1021.1 1020.7
04 17.06 ЮЗ 2 н/о н/о +15.7 +13.4 86 +16 +16 1021.3 1021.0
05 17.06 ЮЗ 2 н/о н/о +16.1 +13.7 86 +16 +16 1021.4 1021.0
06 17.06 Ю 3 н/о н/о +18.0 +14.6 81 +18 +18 1021.7 1021.4 +14.7 +18.7
07 17.06 Ю 3 н/о н/о +18.1 +14.7 81 +19 +19 1022.0 1021.6
08 17.06 Ю 3 н/о н/о +19.5 +15.7 79 +22 +22 комфорт 1022.1 1021.8
09 17.06 Ю 5 н/о н/о +20.2 +16.1 77 +23 +23 комфорт 1022.0 1021.6
10 17.06 Ю 5 н/о н/о +21.2 +15.8 71 +24 +24 комфорт 1022.0 1021.7
11 17.06 Ю 6 н/о н/о +21.6 +16.5 73 +25 +25 комфорт 1022.0 1021.7
12 17.06 Ю 5 н/о н/о +21.5 +16.4 73 +25 +25 комфорт 1021.8 1021.5
13 17.06 Ю 5 н/о н/о +20.9 +16.5 76 +25 +25 комфорт 1021.7 1021.4
14 17.06 Ю 4 н/о н/о +21.1 +16.6 75 +25 +25 комфорт 1021.6 1021.3
15 17.06 Ю 5 н/о н/о +21.4 +16.3 73 +25 +25 комфорт 1021.3 1021.0
16 17.06 Ю 3 н/о н/о +22.0 +16.6 71 +26 +26 душно 1020.9 1020.6
17 17.06 Ю 4 н/о н/о +20.8 +16.1 74 +24 +24 комфорт 1020.8 1020.5
18 17.06 Ю 3 н/о н/о +21.1 +15.8 72 +24 +24 комфорт 1020.6 1020.3 +17.8 +23.2
19 17.06 ЮВ 3 н/о н/о +18.7 +15.2 80 +20 +20 1020.4 1020.1
20 17.06 В 3 н/о н/о +17.0 +15.5 91 +17 +17 1020.2 1019.9
21 17.06 ЮВ 4 н/о н/о +17.0 +15.5 91 +17 +17 1020.2 1019.8
22 17.06 ЮВ 4 н/о н/о +17.1 +15.4 90 +17 +17 1020.0 1019.6
23 17.06 ЮВ 5 н/о н/о +17.0 +14.5 85 +16 +16 1019.9 1019.5
00 18.06 ЮВ 5 н/о н/о +16.9 +14.6 86 +16 +16 1019.8 1019.4
01 18.06 ЮВ 6 н/о н/о +17.0 +14.5 85 +16 +16 1019.4 1019.1
02 18.06 ЮВ 5 н/о н/о +17.0 +14.6 86 +16 +16 1019.1 1018.8
03 18.06 ЮВ 6 н/о н/о +16.9 +14.0 83 +16 +16 1018.7 1018.4
04 18.06 ЮВ 6 н/о н/о +17.4 +14.0 80 +17 +17 1018.3 1018.0
05 18.06 ЮВ 6 н/о н/о +17.7 +14.4 81 +17 +17 1018.2 1017.8
06 18.06 ЮВ 7 н/о н/о +18.0 +13.9 77 +17 +17 1017.9 1017.6 +16.3 +21.2
07 18.06 ЮВ 7 н/о н/о +19.1 +14.3 74 +20 +20 1017.6 1017.2
08 18.06 ЮВ 6 н/о н/о +19.5 +14.9 75 +21 +21 комфорт 1017.4 1017.0
09 18.06 ЮВ 6 н/о н/о +19.6 +15.6 78 +21 +21 комфорт 1017.0 1016.7
10 18.06 ЮВ 5 н/о н/о +21.2 +16.1 73 +25 +25 комфорт 1016.9 1016.6
11 18.06 ЮВ 4 н/о н/о +22.4 +17.2 72 +27 +27 душно 1016.6 1016.3
12 18.06 ЮВ 4 н/о н/о +23.2 +17.4 70 +29 +29 душно 1016.2 1015.9
13 18.06 ЮВ 4 н/о н/о +24.1 +18.5 71 +29 +29 душно 1015.6 1015.3
14 18.06 ЮВ 5 н/о н/о +24.5 +17.9 67 +29 +29 душно 1014.9 1014.6
15 18.06 ЮВ 4 н/о н/о +22.5 +17.9 75 +28 +28 душно 1014.2 1013.9
16 18.06 В 4 н/о н/о +22.6 +18.0 75 +28 +28 душно 1013.7 1013.4
17 18.06 ЮВ 5 н/о н/о +21.2 +17.4 79 +25 +25 комфорт 1014.3 1014.0
18 18.06 В 2 н/о н/о +21.1 +16.8 76 +25 +25 комфорт 1013.7 1013.4 +18.0 +24.8
19 18.06 ЮЗ 10 н/о н/о +17.2 +14.7 85 +16 +16 1014.4 1014.1
20 18.06 З 1 н/о н/о +18.0 +15.9 88 +19 +19 1013.9 1013.6
21 18.06 ЮВ 7
{17}
н/о н/о +17.6 +15.0 85 +17 +17 1013.2 1012.9
22 18.06 Ю 11 н/о н/о +17.7 +16.1 90 +16 +16 1013.7 1013.4
23 18.06 ЮВ 6 н/о н/о +18.6 +15.4 82 +19 +19 1013.0 1012.6
00 19.06 В 4 н/о н/о +17.8 +16.3 91 +18 +18 1012.5 1012.2
01 19.06 В 2 н/о н/о +17.4 +16.4 94 +18 +18 1012.1 1011.8
02 19.06 В 4 н/о н/о +17.4 +16.3 93 +17 +17 1011.7 1011.4
03 19.06 штиль 0 н/о н/о +17.1 +16.2 94 +17 +17 1011.4 1011.1
04 19.06 СВ 1 н/о н/о +17.5 +16.3 93 +19 +19 1011.3 1010.9
05 19.06 В 4 н/о н/о +19.3 +17.3 88 +21 +21 комфорт 1011.1 1010.8
06 19.06 СВ 3 н/о н/о +18.1 +16.4 90 +19 +19 1011.0 1010.6 +16.8 +21.2
07 19.06 В 5 н/о н/о +20.3 +17.7 85 +24 +24 комфорт 1010.7 1010.4
08 19.06 В 2 н/о н/о +21.2 +17.0 77 +25 +25 комфорт 1010.7 1010.4
09 19.06 В 3 н/о н/о +21.4 +17.5 78 +25 +25 комфорт 1010.4 1010.1
10 19.06 В 5 н/о н/о +21.4 +17.8 80 +26 +26 душно 1010.0 1009.7
11 19.06 В 6 н/о н/о +22.9 +18.2 75 +29 +29 очень
душно
1009.4 1009.1
12 19.06 В 6 н/о н/о +23.3 +18.4 74 +29 +29 душно 1008.9 1008.6
13 19.06 В 6 н/о н/о +23.5 +19.1 76 +28 +28 душно 1008.7 1008.4
14 19.06 В 6 н/о н/о +24.1 +19.1 74 +29 +29 душно 1007.6 1007.3
15 19.06 В 6 н/о н/о +23.0 +18.4 75 +29 +29 очень
душно
1007.4 1007.1
16 19.06 В 6 н/о н/о +21.9 +18.2 80 +27 +27 душно 1007.2 1006.9
17 19.06 З 9 н/о н/о +19.1 +15.0 77 +20 +20 1007.6 1007.3
18 19.06 В 6
{20}
н/о н/о +20.7 +16.4 76 +24 +24 комфорт 1006.2 1005.9 +17.8 +24.4
19 19.06 В 8 н/о н/о +20.6 +17.7 83 +24 +24 комфорт 1005.9 1005.6
20 19.06 Ю 8 н/о н/о +17.0 +16.2 95 +16 +16 1007.6 1007.3
21 19.06 В 5
{20}
н/о н/о +17.6 +15.9 90 +17 +17 1006.1 1005.8
22 19.06 СВ 2 н/о н/о +17.9 +16.1 89 +19 +19 1006.8 1006.5
23 19.06 ЮЗ 3 н/о н/о +16.8 +16.0 95 +17 +17 1006.9 1006.6
00 20.06 Ю 2 н/о н/о +16.5 +15.9 96 +17 +17 1006.4 1006.0
01 20.06 ЮЗ 7 н/о н/о +16.6 +16.2 97 +15 +15 1006.5 1006.2
02 20.06 ЮЗ 3 н/о н/о +16.4 +15.9 97 +16 +16 1006.1 1005.8
03 20.06 Ю 3 н/о н/о +16.2 +15.7 97 +16 +16 1006.4 1006.0
04 20.06 ЮЗ 4 н/о н/о +16.7 +16.2 97 +16 +16 1006.0 1005.7
05 20.06 Ю 5 н/о н/о +17.7 +16.9 95 +17 +17 1006.5 1006.2
06 20.06 Ю 6 н/о н/о +17.9 +16.9 94 +17 +17 1006.7 1006.4 +16.0 +21.1
07 20.06 Ю 5 н/о н/о +19.1 +17.2 89 +20 +20 1007.0 1006.6
08 20.06 Ю 4 н/о н/о +20.5 +18.0 86 +24 +24 комфорт 1007.3 1007.0
09 20.06 Ю 5 н/о н/о +20.4 +17.8 85 +24 +24 комфорт 1007.8 1007.5
10 20.06 Ю 7 н/о н/о +18.7 +17.0 90 +19 +19 1008.1 1007.8
11 20.06 Ю 6 н/о н/о +20.9 +18.1 84 +25 +25 комфорт 1008.5 1008.2
12 20.06 Ю 6 н/о н/о +21.7 +17.9 79 +26 +26 душно 1008.9 1008.6
13 20.06 ЮЗ 9 н/о н/о +20.0 +16.3 79 +22 +22 комфорт 1009.1 1008.7
15 20.06 ЮЗ 7 н/о н/о +19.2 +16.0 82 +20 +20 1009.9 1009.6
16 20.06 ЮЗ 7 н/о н/о +18.6 +15.5 82 +19 +19 1010.0 1009.7
17 20.06 З 5 н/о н/о +18.7 +15.6 82 +19 +19 1010.1 1009.8
18 20.06 З 5 н/о н/о +18.5 +15.0 80 +19 +19 1010.8 1010.5 +17.8 +22.2
19 20.06 З 4 н/о н/о +18.0 +15.1 83 +18 +18 1011.4 1011.1
20 20.06 З 5 н/о н/о +16.9 +14.4 85 +16 +16 1011.8 1011.5

 

Местоположение метеостанции Омо (Дания): широта 55.17 долгота 11.13 высота над уровнем моря 3 м.

В архиве по умолчанию представлена погода в Омо за последнюю неделю. Архивные данные за месяц целиком и за предыдущие месяцы, начиная с января 2011 года, Вы можете получить, выбрав интересующий диапазон дат из раскрывающегося списка и нажав кнопку "Ввод!".


*Определитесь, кто Вы:
робот инопланетянин человек

Внимание! Время в таблицах - всемирное. Для получения местного времени необходимо прибавить поправку, которая равна 1 ч.

Смотрите также архив погоды в соседних городах и на ближайших метеорологических станциях:

Погода в Тысофте (Дания) (16 км)
Погода в Флаккебэрге (Дания) (23 км)
Погода в Тосинге (Дания) (39 км)
Погода в Ланго (Дания) (40 км)
Погода в Абеде (Дания) (40 км)
Погода в Арслеве (Дания) (46 км)
Погода в Бранделеве (Дания) (47 км)
Погода в Оденсе (Дания) (61 км)
Погода на Мысе Roesnaes (Дания) (67 км)
Погода в Хольбеке (Дания) (69 км)

Пояснения к столбцам:

Ветер - указаны скорость ветра в м/с - средняя за 10 мин, порывы в срок и между сроками (в фигурных скобках) и направление, откуда дует ветер: С - северный, СВ - северо-восточный, В - восточный, ЮВ - юго-восточный, Ю - южный, ЮЗ - юго-западный, З - западный, СЗ - северо-западный.
Видимость - горизонтальная дальность видимости в метрах или километрах. При видимости от 1 до 10 км при отсутствии осадков обычно наблюдается дымка, при ухудшении видимости до 1 км и менее - туман. В сухую погоду видимость может ухудшаться дымом, пылью или мглою.
Явления - указаны атмосферные явления, наблюдавшиеся в срок или в последний час перед сроком; фигурными скобками обозначены явления, наблюдавшиеся между сроками (за 1-3 часа до срока); квадратными скобками обозначены град или гололедные отложения с указанием их диаметра в мм.
Облачность - указаны через наклонную черту общая и нижняя облачность в баллах и высота нижней границы облаков в метрах; квадратными скобками обозначены формы облаков: Ci - перистые, Cs - перисто-слоистые, Cc - перисто-кучевые, Ac - высококучевые, As - высокослоистые, Sc - слоисто-кучевые, Ns - слоисто-дождевые, Cu - кучевые, Cb - кучево-дождевые. Подробнее классификацию облаков см. в Атласе облаков (PDF).
T - Температура воздуха - температура, измеренная на высоте 2 м над землей.
Td - Температура точки росы - температура, при понижении до которой содержащийся в воздухе водяной пар достигнет насыщения.
f - Относительная влажность воздуха - влажноcть воздуха, измеренная на высоте 2 м над землей.
Te - Эффективная температура - температура, которую ощущает одетый по сезону человек в тени. Характеристика душности погоды. При расчете учитывается влияние влажности воздуха и скорости ветра на теплоощущения человека.
Tes - Эффективная температура на солнце - температура, которую ощущает человек, с поправкой на солнечный нагрев. Характеристика знойности погоды. Зависит от высоты солнца над горизонтом, облачности и скорости ветра. Ночью, в пасмурную погоду, а также при ветре 12 м/с и более поправка равна нулю.
P - Атмосферное давление - приведенное к уровню моря атмосферное давление.
Po - Атмосферное давление - измеренное на уровне метеостанции атмосферное давление.
Tmin - Минимальная температура - минимум температуры воздуха на высоте 2 м над землей.
Tmax - Максимальная температура - максимум температуры воздуха на высоте 2 м над землей.
R - Количество осадков - Количество выпавших осадков за период времени, мм. При наведении курсора мыши на число - период времени, за который выпало указанное количество осадков.
R24 - Количество осадков - Количество выпавших осадков за 24 часа, мм.
S - Снежный покров - Высота снежного покрова, см. При наведении курсора мыши на число - состояние снежного покрова и степень покрытия местности в баллах.